Retour au catalogue

USA 173 DEB

ActifLEO
NORAD 28097·DEBRIS·🇺🇸 United States

Lancé Dec 2, 2003 depuis Vandenberg Space Force Base

Loading…

Prochains Passages (prochaines 24 heures)

TLE

VieillissantSource: Mike McCants

Époque: Sep 10, 2026, 01:44 UTC

1 28097U 03054C   26253.07289672 0.00000060  00000-0  36307-4 0    09
2 28097  63.3830 328.8604 0603047   8.1256 351.8744 13.41321231    07

Suivez USA 173 DEB en temps réel avec AllMySat

Download on the App Store